Weather History for Cedar City, UT

Change the Weather History Date:

Sunday, July 21, 2013

  Actual Average Record
Temperature  
Mean Temperature 78 °F 74 °F  
Max Temperature 94 °F 91 °F 100 °F (1980)
Min Temperature 62 °F 57 °F 47 °F (1973)
Degree Days  
Heating Degree Days 0 0  
Month to date heating degree days 0 0  
Since 1 June heating degree days 11 76  
Since 1 July heating degree days 0 0  
Cooling Degree Days 13 9  
Month to date cooling degree days 226 165  
Year to date cooling degree days 379 266  
Since 1 June cooling degree days 377 258  
Growing Degree Days 27 (Base 50)    
Moisture  
Dew Point 49 °F    
Average Humidity 40    
Maximum Humidity 65    
Minimum Humidity 15    
Precipitation  
Precipitation 0.00 in 0.03 in 1.10 in (1970)
Month to date precipitation 1.54 0.48  
Year to date precipitation 5.61 6.05  
Sea Level Pressure  
Sea Level Pressure 29.86 in    
Wind  
Wind Speed 6 mph (South)    
Max Wind Speed 24 mph    
Max Gust Speed 31 mph    
Visibility 10 miles    
Events Rain , Thunderstorm    
T = Trace of Precipitation, MM = Missing Value Source: NWS Daily Summary

Daily Weather History Graph

Daily Weather History Graph

Search for Another Location

Airport:

Trip Planner

Search our weather history database for the weather conditions in past years. The results will help you decide how hot, cold, wet, or windy it might be!

Date:

Astronomy

Jul. 21, 2013 Rise Set
Actual Time 6:27 AM MDT 8:49 PM MDT
Civil Twilight 5:57 AM MDT 9:19 PM MDT
Nautical Twilight 5:20 AM MDT 9:56 PM MDT
Astronomical Twilight 4:39 AM MDT 10:36 PM MDT
Moon 7:52 PM MDT (7/21) 5:17 AM MDT (7/21)
Length of Visible Light 15h 22m
Length of Day
14h 22m
Waxing Gibbous, 98% of the Moon is Illuminated
Jul 21
Waxing Gibbous
Jul 22
Full
Jul 29
Last Quarter
Aug 6
New
Aug 14
First Quarter

Hourly Weather History & Observations

Time (MDT) Temp. Dew Point Humidity Pressure Visibility Wind Dir Wind Speed Gust Speed Precip Events Conditions
12:53 AM 69.1 °F 51.1 °F 53% 29.78 in 10.0 mi SW 3.5 mph - N/A   Clear
1:53 AM 70.0 °F 48.9 °F 47% 29.77 in 10.0 mi SSE 4.6 mph - N/A   Clear
2:53 AM 71.1 °F 46.9 °F 42% 29.76 in 10.0 mi SSE 4.6 mph - N/A   Clear
3:53 AM 70.0 °F 50.0 °F 49% 29.78 in 10.0 mi South 8.1 mph - N/A   Clear
4:53 AM 69.1 °F 50.0 °F 51% 29.78 in 10.0 mi South 8.1 mph - N/A   Clear
5:53 AM 66.9 °F 50.0 °F 54% 29.81 in 10.0 mi South 5.8 mph - N/A   Clear
6:53 AM 63.0 °F 50.0 °F 63% 29.83 in 10.0 mi Calm Calm - N/A   Clear
7:53 AM 66.9 °F 53.1 °F 61% 29.84 in 10.0 mi Calm Calm - N/A   Clear
8:53 AM 73.9 °F 51.1 °F 45% 29.84 in 10.0 mi Calm Calm - N/A   Clear
9:53 AM 78.1 °F 48.9 °F 36% 29.83 in 10.0 mi SSE 3.5 mph - N/A   Clear
10:53 AM 82.0 °F 48.9 °F 31% 29.82 in 10.0 mi Variable 4.6 mph - N/A   Clear
11:53 AM 84.0 °F 48.9 °F 29% 29.81 in 10.0 mi WNW 3.5 mph - N/A   Clear
12:53 PM 89.1 °F 46.0 °F 22% 29.80 in 10.0 mi Variable 4.6 mph - N/A   Clear
1:53 PM 90.0 °F 46.0 °F 22% 29.77 in 10.0 mi SW 9.2 mph - N/A   Clear
2:53 PM 91.0 °F 46.0 °F 21% 29.76 in 10.0 mi SSW 12.7 mph 20.7 mph N/A   Clear
3:13 PM 91.4 °F 35.6 °F 14% 30.04 in 10.0 mi ESE 16.1 mph 29.9 mph N/A   Partly Cloudy
3:53 PM 91.0 °F 37.0 °F 15% 29.74 in 10.0 mi SE 21.9 mph 28.8 mph N/A   Clear
4:40 PM 84.2 °F 42.8 °F 23% 30.06 in 10.0 mi NNE 9.2 mph 17.3 mph N/A Thunderstorm Scattered Clouds
4:53 PM 82.0 °F 44.1 °F 26% 29.80 in 10.0 mi Variable 3.5 mph - N/A   Mostly Cloudy
5:14 PM 77.0 °F 48.2 °F 36% 30.08 in 10.0 mi NNW 21.9 mph 35.7 mph N/A Thunderstorm Thunderstorm
5:29 PM 73.4 °F 48.2 °F 41% 30.10 in 10.0 mi NNW 21.9 mph 33.4 mph N/A   Mostly Cloudy
5:53 PM 68.0 °F 53.1 °F 59% 29.92 in 10.0 mi NNE 8.1 mph - 0.00 in Rain Light Rain
6:53 PM 69.1 °F 57.0 °F 65% 29.92 in 7.0 mi SE 10.4 mph - 0.03 in Rain Light Rain
7:53 PM 71.1 °F 55.9 °F 59% 29.86 in 10.0 mi SE 12.7 mph - 0.01 in Rain Light Rain
8:53 PM 69.1 °F 54.0 °F 58% 29.85 in 10.0 mi WSW 10.4 mph - 0.00 in   Partly Cloudy
9:53 PM 68.0 °F 54.0 °F 61% 29.86 in 10.0 mi South 4.6 mph - N/A   Clear
10:53 PM 70.0 °F 51.1 °F 51% 29.88 in 10.0 mi Calm Calm - N/A   Clear
11:53 PM 68.0 °F 52.0 °F 56% 29.86 in 10.0 mi SSW 6.9 mph - N/A   Clear